Location: Beccas
(43.4309°N, 0.1528°E)
Time: 22:25:13
(UTC+00:00)

Cosmos 1703 - Pass Details

Date: 29 May 2022
Orbit: 518 x 535 km, 82.5° (Epoch: 01 July)

Event Time Altitude Azimuth Distance (km) Brightness Sun altitude
Exits shadow 01:02:59 12° 106° (ESE) 1,635 5.7 -23.2°
Maximum altitude 01:04:14 14° 86° (E) 1,544 5.8 -23.2°
Drops below altitude 10° 01:06:20 10° 53° (NE) 1,792 6.6 -23.0°
Sets 01:09:19 0° 28° (NNE) 2,685 8.2 -22.9°
